START_TIME,STEP,MOV.,M6,t_acc.,M7,t_acc.,M19,t_acc.,H36,t_acc.
1979-07-26 12:00:26.430 ,0,0,0.,12.0,0.,12.0,0.,12.0,0.,12.0
1979-07-26 12:00:38.430 ,0,0,0.,12.0,0.,12.0,0.,12.0,0.,12.0
1979-07-26 12:00:50.430 ,1,1,0.,12.0,0.,12.0,0.,12.0,1.,12.0
1979-07-26 12:01:02.430 ,1,1,0.,12.0,0.,12.0,0.,12.0,0.,12.0
1979-07-26 12:01:14.430 ,1,0,1.,12.0,0.,12.0,0.,12.0,0.,12.0
1979-07-26 12:01:26.430 ,1,0,0.,12.0,0.,12.0,0.,12.0,0.,12.0
1979-07-26 12:01:38.430 ,2,1,0.,12.0,0.,12.0,0.,12.0,0.,12.0
1979-07-26 12:01:50.430 ,2,1,0.,12.0,0.,12.0,0.,12.0,0.,12.0
1979-07-26 12:02:02.430 ,2,0,0.,12.0,0.,12.0,0.,12.0,0.,12.0
1979-07-26 12:02:14.430 ,2,0,0.,12.0,0.,12.0,0.,12.0,0.,12.0
1979-07-26 12:02:26.430 ,3,1,0.,12.0,0.,12.0,0.,12.0,0.,12.0
1979-07-26 12:02:38.430 ,3,1,0.,12.0,0.,12.0,0.,12.0,0.,12.0
1979-07-26 12:02:50.430 ,3,0,0.,12.0,0.,12.0,0.,12.0,0.,12.0
1979-07-26 12:03:02.430 ,3,0,0.,12.0,0.,12.0,0.,12.0,0.,12.0
1979-07-26 12:03:14.430 ,4,1,0.,12.0,0.,12.0,0.,12.0,0.,12.0
1979-07-26 12:03:26.430 ,4,1,0.,12.0,0.,12.0,0.,12.0,0.,12.0
1979-07-26 12:03:38.430 ,4,0,0.,12.0,0.,12.0,0.,12.0,0.,12.0
1979-07-26 12:03:50.430 ,4,0,0.,12.0,0.,12.0,0.,12.0,0.,12.0
1979-07-26 12:04:02.430 ,5,1,0.,12.0,0.,12.0,0.,12.0,0.,12.0
1979-07-26 12:04:14.430 ,5,1,0.,12.0,0.,12.0,0.,12.0,0.,12.0
1979-07-26 12:04:26.430 ,5,0,0.,12.0,0.,12.0,0.,12.0,0.,12.0
1979-07-26 12:04:38.430 ,5,0,0.,12.0,0.,12.0,0.,12.0,0.,12.0
1979-07-26 12:04:50.430 ,6,1,0.,12.0,0.,12.0,0.,12.0,0.,12.0
1979-07-26 12:05:02.430 ,6,1,0.,12.0,0.,12.0,0.,12.0,0.,12.0
1979-07-26 12:05:14.430 ,6,0,0.,12.0,0.,12.0,0.,12.0,0.,12.0
1979-07-26 12:05:26.430 ,6,0,0.,12.0,0.,12.0,0.,12.0,0.,12.0
1979-07-26 12:05:38.430 ,7,1,0.,12.0,0.,12.0,0.,12.0,0.,12.0
1979-07-26 12:05:50.430 ,7,1,0.,12.0,0.,12.0,0.,12.0,0.,12.0
1979-07-26 12:06:02.430 ,7,0,0.,12.0,0.,12.0,0.,12.0,0.,12.0
1979-07-26 12:06:14.430 ,7,0,0.,12.0,0.,12.0,0.,12.0,0.,12.0
1979-07-26 12:06:26.430 ,7,1,0.,12.0,0.,12.0,0.,12.0,0.,12.0
1979-07-26 12:06:38.430 ,7,1,0.,12.0,0.,12.0,0.,12.0,0.,12.0
1979-07-26 12:06:50.430 ,7,0,0.,12.0,0.,12.0,0.,12.0,0.,12.0
1979-07-26 12:07:02.430 ,7,0,0.,12.0,0.,12.0,0.,12.0,0.,12.0
1979-07-26 12:07:14.430 ,6,1,0.,12.0,0.,12.0,0.,12.0,0.,12.0
1979-07-26 12:07:26.430 ,6,1,0.,12.0,0.,12.0,0.,12.0,0.,12.0
1979-07-26 12:07:38.430 ,6,0,0.,12.0,0.,12.0,0.,12.0,0.,12.0
1979-07-26 12:07:50.430 ,6,0,0.,12.0,0.,12.0,0.,12.0,0.,12.0
1979-07-26 12:08:02.430 ,0,0,0.,12.0,0.,12.0,0.,12.0,0.,12.0
1979-07-26 12:08:14.430 ,0,0,,0,,0,,0,,0
1979-07-26 12:08:26.430 ,0,0,,0,,0,,0,,0
1979-07-26 12:08:38.430 ,0,0,0.,12.0,0.,12.0,0.,12.0,0.,12.0
1979-07-26 12:08:50.430 ,4,1,0.,12.0,0.,12.0,0.,12.0,0.,12.0
1979-07-26 12:09:02.430 ,4,1,0.,12.0,0.,12.0,0.,12.0,0.,12.0
1979-07-26 12:09:14.430 ,4,0,0.,12.0,0.,12.0,0.,12.0,0.,12.0
1979-07-26 12:09:26.430 ,4,0,0.,12.0,0.,12.0,0.,12.0,0.,12.0
1979-07-26 12:09:38.430 ,3,1,0.,12.0,0.,12.0,0.,12.0,0.,12.0
1979-07-26 12:09:50.430 ,3,1,0.,12.0,0.,12.0,0.,12.0,0.,12.0
1979-07-26 12:10:02.430 ,3,0,0.,12.0,0.,12.0,0.,12.0,0.,12.0
1979-07-26 12:10:14.430 ,3,0,0.,12.0,0.,12.0,0.,12.0,0.,12.0
1979-07-26 12:10:26.430 ,2,1,0.,12.0,0.,12.0,0.,12.0,0.,12.0
1979-07-26 12:10:38.430 ,2,1,0.,12.0,0.,12.0,0.,12.0,0.,12.0
1979-07-26 12:10:50.430 ,2,0,0.,12.0,0.,12.0,0.,12.0,0.,12.0
1979-07-26 12:11:02.430 ,2,0,0.,12.0,0.,12.0,0.,12.0,0.,12.0
1979-07-26 12:11:14.430 ,1,1,0.,12.0,0.,12.0,0.,12.0,0.,12.0
1979-07-26 12:11:26.430 ,1,1,0.,12.0,0.,12.0,0.,12.0,0.,12.0
1979-07-26 12:11:38.430 ,1,0,0.,12.0,0.,12.0,0.,12.0,0.,12.0
1979-07-26 12:11:50.430 ,1,0,0.,12.0,0.,12.0,0.,12.0,0.,12.0
1979-07-26 12:12:02.430 ,0,1,0.,12.0,0.,12.0,0.,12.0,0.,12.0
1979-07-26 12:12:14.430 ,0,1,0.,12.0,0.,12.0,0.,12.0,0.,12.0
1979-07-26 12:12:26.430 ,0,0,0.,12.0,0.,12.0,0.,12.0,0.,12.0
1979-07-26 12:12:38.430 ,0,0,0.,12.0,0.,12.0,0.,12.0,0.,12.0
1979-07-26 12:12:50.430 ,0,1,0.,12.0,0.,12.0,0.,12.0,0.,12.0
1979-07-26 12:13:02.430 ,0,1,0.,12.0,0.,12.0,0.,12.0,0.,12.0
1979-07-26 12:13:14.430 ,0,0,0.,12.0,0.,12.0,0.,12.0,0.,12.0
1979-07-26 12:13:26.430 ,0,0,0.,12.0,0.,12.0,0.,12.0,0.,12.0
1979-07-26 12:13:38.430 ,1,1,0.,12.0,0.,12.0,0.,12.0,0.,12.0
1979-07-26 12:13:50.430 ,1,1,0.,12.0,0.,12.0,0.,12.0,0.,12.0
1979-07-26 12:14:02.430 ,1,0,0.,12.0,0.,12.0,0.,12.0,0.,12.0
1979-07-26 12:14:14.430 ,1,0,0.,12.0,0.,12.0,0.,12.0,0.,12.0
1979-07-26 12:14:26.430 ,2,1,0.,12.0,0.,12.0,0.,12.0,0.,12.0
1979-07-26 12:14:38.430 ,2,1,0.,12.0,0.,12.0,0.,12.0,0.,12.0
1979-07-26 12:14:50.430 ,2,0,0.,12.0,0.,12.0,0.,12.0,0.,12.0
1979-07-26 12:15:02.430 ,2,0,0.,12.0,0.,12.0,0.,12.0,0.,12.0
1979-07-26 12:15:14.430 ,3,1,0.,12.0,0.,12.0,0.,12.0,0.,12.0
1979-07-26 12:15:26.430 ,3,1,0.,12.0,0.,12.0,0.,12.0,0.,12.0
1979-07-26 12:15:38.430 ,3,0,0.,12.0,0.,12.0,0.,12.0,0.,12.0
1979-07-26 12:15:50.430 ,3,0,0.,12.0,0.,12.0,0.,12.0,0.,12.0
1979-07-26 12:16:02.430 ,4,1,0.,12.0,0.,12.0,0.,12.0,0.,12.0
1979-07-26 12:16:14.430 ,4,1,0.,12.0,0.,12.0,0.,12.0,0.,12.0
1979-07-26 12:16:26.430 ,4,0,0.,12.0,0.,12.0,0.,12.0,0.,12.0
1979-07-26 12:16:38.430 ,4,0,0.,12.0,0.,12.0,0.,12.0,0.,12.0
1979-07-26 12:16:50.430 ,5,1,0.,12.0,0.,12.0,0.,12.0,0.,12.0
1979-07-26 12:17:02.430 ,5,1,0.,12.0,0.,12.0,0.,12.0,0.,12.0
1979-07-26 12:17:14.430 ,5,0,0.,12.0,0.,12.0,0.,12.0,0.,12.0
1979-07-26 12:17:26.430 ,5,0,0.,12.0,0.,12.0,0.,12.0,0.,12.0
1979-07-26 12:17:38.430 ,6,1,0.,12.0,0.,12.0,0.,12.0,0.,12.0
1979-07-26 12:17:50.430 ,6,1,0.,12.0,0.,12.0,0.,12.0,0.,12.0
1979-07-26 12:18:02.430 ,6,0,0.,12.0,0.,12.0,0.,12.0,0.,12.0
1979-07-26 12:18:14.430 ,6,0,0.,12.0,0.,12.0,0.,12.0,0.,12.0
1979-07-26 12:18:26.430 ,7,0,0.,12.0,0.,12.0,0.,12.0,0.,12.0
1979-07-26 12:18:38.430 ,7,0,0.,12.0,0.,12.0,0.,12.0,0.,12.0
1979-07-26 12:18:50.430 ,7,0,0.,12.0,0.,12.0,0.,12.0,0.,12.0
1979-07-26 12:19:02.430 ,7,0,0.,12.0,0.,12.0,0.,12.0,0.,12.0
1979-07-26 12:19:14.430 ,4,1,0.,12.0,0.,12.0,0.,12.0,0.,12.0
1979-07-26 12:19:26.430 ,4,1,0.,12.0,0.,12.0,0.,12.0,0.,12.0
1979-07-26 12:19:38.430 ,0,1,0.,12.0,0.,12.0,0.,12.0,0.,12.0
1979-07-26 12:19:50.430 ,0,1,0.,12.0,0.,12.0,0.,12.0,0.,12.0
1979-07-26 12:20:02.430 ,3,1,0.,12.0,0.,12.0,0.,12.0,0.,12.0
1979-07-26 12:20:14.430 ,3,1,0.,12.0,0.,12.0,0.,12.0,0.,12.0
1979-07-26 12:20:26.430 ,7,1,0.,12.0,0.,12.0,0.,12.0,0.,12.0
1979-07-26 12:20:38.430 ,7,1,0.,12.0,0.,12.0,0.,12.0,0.,12.0
1979-07-26 12:20:50.430 ,4,1,0.,12.0,0.,12.0,0.,12.0,0.,12.0
1979-07-26 12:21:02.430 ,4,1,0.,12.0,0.,12.0,0.,12.0,0.,12.0
1979-07-26 12:21:14.430 ,0,1,0.,12.0,0.,12.0,0.,12.0,0.,12.0
1979-07-26 12:21:26.430 ,0,1,0.,12.0,0.,12.0,0.,12.0,0.,12.0
1979-07-26 12:21:38.430 ,3,1,0.,12.0,0.,12.0,0.,12.0,0.,12.0
1979-07-26 12:21:50.430 ,3,1,0.,12.0,0.,12.0,0.,12.0,0.,12.0
1979-07-26 12:22:02.430 ,7,1,0.,12.0,0.,12.0,0.,12.0,0.,12.0
1979-07-26 12:22:14.430 ,7,1,0.,12.0,0.,12.0,0.,12.0,0.,12.0
1979-07-26 12:22:26.430 ,4,1,0.,12.0,0.,12.0,0.,12.0,0.,12.0
1979-07-26 12:22:38.430 ,4,1,0.,12.0,0.,12.0,0.,12.0,0.,12.0
1979-07-26 12:22:50.430 ,0,1,0.,12.0,0.,12.0,0.,12.0,0.,12.0
1979-07-26 12:23:02.430 ,0,1,0.,12.0,0.,12.0,0.,12.0,0.,12.0
1979-07-26 12:23:14.430 ,3,1,0.,12.0,0.,12.0,0.,12.0,0.,12.0
1979-07-26 12:23:26.430 ,3,1,0.,12.0,0.,12.0,0.,12.0,0.,12.0
1979-07-26 12:23:38.430 ,7,1,0.,12.0,0.,12.0,0.,12.0,0.,12.0
1979-07-26 12:23:50.430 ,7,1,0.,12.0,0.,12.0,0.,12.0,0.,12.0
1979-07-26 12:24:02.430 ,4,1,0.,12.0,0.,12.0,0.,12.0,0.,12.0
1979-07-26 12:24:14.430 ,4,1,0.,12.0,0.,12.0,0.,12.0,0.,12.0
1979-07-26 12:24:26.430 ,0,1,0.,12.0,0.,12.0,0.,12.0,0.,12.0
1979-07-26 12:24:38.430 ,0,1,0.,12.0,0.,12.0,0.,12.0,0.,12.0
1979-07-26 12:24:50.430 ,3,1,0.,12.0,0.,12.0,0.,12.0,0.,12.0
1979-07-26 12:25:02.430 ,3,1,0.,12.0,0.,12.0,0.,12.0,0.,12.0
1979-07-26 12:25:14.430 ,7,1,0.,12.0,0.,12.0,0.,12.0,0.,12.0
1979-07-26 12:25:26.430 ,7,1,0.,12.0,0.,12.0,0.,12.0,0.,12.0
1979-07-26 12:25:38.430 ,4,1,0.,12.0,0.,12.0,0.,12.0,0.,12.0
1979-07-26 12:25:50.430 ,4,1,0.,12.0,0.,12.0,0.,12.0,0.,12.0
1979-07-26 12:26:02.430 ,0,1,0.,12.0,0.,12.0,0.,12.0,0.,12.0
1979-07-26 12:26:14.430 ,0,1,0.,12.0,0.,12.0,0.,12.0,0.,12.0
1979-07-26 12:26:26.430 ,3,1,0.,12.0,0.,12.0,0.,12.0,0.,12.0
1979-07-26 12:26:38.430 ,3,1,0.,12.0,0.,12.0,0.,12.0,0.,12.0
1979-07-26 12:26:50.430 ,7,1,0.,12.0,0.,12.0,0.,12.0,0.,12.0
1979-07-26 12:27:02.430 ,7,1,0.,12.0,0.,12.0,0.,12.0,0.,12.0
1979-07-26 12:27:14.430 ,4,1,0.,12.0,0.,12.0,0.,12.0,0.,12.0
1979-07-26 12:27:26.430 ,4,1,0.,12.0,0.,12.0,0.,12.0,0.,12.0
1979-07-26 12:27:38.430 ,0,1,0.,12.0,0.,12.0,0.,12.0,0.,12.0
1979-07-26 12:27:50.430 ,0,1,0.,12.0,0.,12.0,0.,12.0,0.,12.0
1979-07-26 12:28:02.430 ,3,1,0.,12.0,0.,12.0,0.,12.0,0.,12.0
1979-07-26 12:28:14.430 ,3,1,0.,12.0,0.,12.0,0.,12.0,0.,12.0
1979-07-26 12:28:26.430 ,7,1,0.,12.0,0.,12.0,0.,12.0,0.,12.0
1979-07-26 12:28:38.430 ,7,1,0.,12.0,0.,12.0,0.,12.0,0.,12.0
1979-07-26 12:28:50.430 ,4,1,0.,12.0,0.,12.0,0.,12.0,0.,12.0
1979-07-26 12:29:02.430 ,4,1,0.,12.0,0.,12.0,0.,12.0,0.,12.0
1979-07-26 12:29:14.430 ,0,1,0.,12.0,0.,12.0,0.,12.0,0.,12.0
1979-07-26 12:29:26.430 ,0,1,0.,12.0,0.,12.0,0.,12.0,0.,12.0
1979-07-26 12:29:38.430 ,0,0,0.,12.0,0.,12.0,0.,12.0,0.,12.0
1979-07-26 12:29:50.430 ,0,0,0.,12.0,0.,12.0,0.,12.0,0.,12.0
1979-07-26 12:30:02.430 ,0,0,0.,12.0,0.,12.0,0.,12.0,0.,12.0
1979-07-26 12:30:14.430 ,0,0,0.,12.0,0.,12.0,0.,12.0,0.,12.0
1979-07-26 12:30:26.430 ,5,1,0.,12.0,0.,12.0,0.,12.0,0.,12.0
1979-07-26 12:30:38.430 ,5,1,0.,12.0,0.,12.0,0.,12.0,0.,12.0
1979-07-26 12:30:50.430 ,5,0,0.,12.0,0.,12.0,0.,12.0,0.,12.0
1979-07-26 12:31:02.430 ,5,0,0.,12.0,0.,12.0,0.,12.0,0.,12.0
1979-07-26 12:31:14.430 ,4,1,0.,12.0,0.,12.0,0.,12.0,0.,12.0
1979-07-26 12:31:26.430 ,4,1,0.,12.0,0.,12.0,0.,12.0,0.,12.0
1979-07-26 12:31:38.430 ,4,0,0.,12.0,0.,12.0,0.,12.0,0.,12.0
1979-07-26 12:31:50.430 ,4,0,0.,12.0,0.,12.0,0.,12.0,0.,12.0
1979-07-26 12:32:02.430 ,3,1,0.,12.0,0.,12.0,0.,12.0,0.,12.0
1979-07-26 12:32:14.430 ,3,1,0.,12.0,0.,12.0,0.,12.0,0.,12.0
1979-07-26 12:32:26.430 ,3,0,0.,12.0,0.,12.0,0.,12.0,0.,12.0
1979-07-26 12:32:38.430 ,3,0,0.,12.0,0.,12.0,0.,12.0,0.,12.0
1979-07-26 12:32:50.430 ,2,1,0.,12.0,0.,12.0,0.,12.0,0.,12.0
1979-07-26 12:33:02.430 ,2,1,0.,12.0,0.,12.0,0.,12.0,0.,12.0
1979-07-26 12:33:14.430 ,2,0,0.,12.0,0.,12.0,0.,12.0,0.,12.0
1979-07-26 12:33:26.430 ,2,0,0.,12.0,0.,12.0,0.,12.0,0.,12.0
1979-07-26 12:33:38.430 ,1,1,0.,12.0,0.,12.0,0.,12.0,0.,12.0
1979-07-26 12:33:50.430 ,1,1,0.,12.0,0.,12.0,0.,12.0,0.,12.0
1979-07-26 12:34:02.430 ,1,0,0.,12.0,0.,12.0,0.,12.0,0.,12.0
1979-07-26 12:34:14.430 ,1,0,0.,12.0,0.,12.0,0.,12.0,0.,12.0
1979-07-26 12:34:26.430 ,0,1,0.,12.0,0.,12.0,0.,12.0,0.,12.0
1979-07-26 12:34:38.430 ,0,1,0.,12.0,0.,12.0,0.,12.0,0.,12.0
1979-07-26 12:34:50.430 ,0,0,0.,12.0,0.,12.0,0.,12.0,0.,12.0
1979-07-26 12:35:02.430 ,0,0,0.,12.0,0.,12.0,0.,12.0,0.,12.0
1979-07-26 12:35:14.430 ,0,1,0.,12.0,0.,12.0,0.,12.0,0.,12.0
1979-07-26 12:35:26.430 ,0,1,0.,12.0,0.,12.0,0.,12.0,0.,12.0
1979-07-26 12:35:38.430 ,0,0,0.,12.0,0.,12.0,0.,12.0,0.,12.0
1979-07-26 12:35:50.430 ,0,0,0.,12.0,0.,12.0,0.,12.0,0.,12.0
1979-07-26 12:36:02.430 ,1,1,1.,12.0,0.,12.0,0.,12.0,0.,12.0
1979-07-26 12:36:14.430 ,1,1,0.,12.0,0.,12.0,0.,12.0,0.,12.0
1979-07-26 12:36:26.430 ,1,0,0.,12.0,0.,12.0,0.,12.0,0.,12.0
1979-07-26 12:36:38.430 ,1,0,0.,12.0,0.,12.0,0.,12.0,0.,12.0
1979-07-26 12:36:50.430 ,2,1,0.,12.0,0.,12.0,0.,12.0,0.,12.0
1979-07-26 12:37:02.430 ,2,1,0.,12.0,0.,12.0,0.,12.0,0.,12.0
1979-07-26 12:37:14.430 ,2,0,0.,12.0,0.,12.0,0.,12.0,0.,12.0
1979-07-26 12:37:26.430 ,2,0,0.,12.0,0.,12.0,0.,12.0,0.,12.0
1979-07-26 12:37:38.430 ,3,1,0.,12.0,0.,12.0,0.,12.0,0.,12.0
1979-07-26 12:37:50.430 ,3,1,0.,12.0,0.,12.0,0.,12.0,0.,12.0
1979-07-26 12:38:02.430 ,3,0,0.,12.0,0.,12.0,0.,12.0,0.,12.0
1979-07-26 12:38:14.430 ,3,0,0.,12.0,0.,12.0,0.,12.0,0.,12.0
1979-07-26 12:38:26.430 ,4,1,0.,12.0,0.,12.0,0.,12.0,0.,12.0
1979-07-26 12:38:38.430 ,4,1,0.,12.0,0.,12.0,0.,12.0,0.,12.0
1979-07-26 12:38:50.430 ,4,0,0.,12.0,0.,12.0,0.,12.0,0.,12.0
1979-07-26 12:39:02.430 ,4,0,0.,12.0,0.,12.0,0.,12.0,0.,12.0
1979-07-26 12:39:14.430 ,5,1,0.,12.0,0.,12.0,0.,12.0,0.,12.0
1979-07-26 12:39:26.430 ,5,1,0.,12.0,0.,12.0,0.,12.0,0.,12.0
1979-07-26 12:39:38.430 ,5,0,0.,12.0,0.,12.0,0.,12.0,0.,12.0
1979-07-26 12:39:50.430 ,5,0,0.,12.0,0.,12.0,0.,12.0,0.,12.0
1979-07-26 12:40:02.430 ,6,1,0.,12.0,0.,12.0,0.,12.0,0.,12.0
1979-07-26 12:40:14.430 ,6,1,0.,12.0,0.,12.0,0.,12.0,0.,12.0
1979-07-26 12:40:26.430 ,6,0,0.,12.0,0.,12.0,0.,12.0,0.,12.0
1979-07-26 12:40:38.430 ,6,0,0.,12.0,0.,12.0,0.,12.0,0.,12.0
1979-07-26 12:40:50.430 ,7,1,0.,12.0,0.,12.0,0.,12.0,0.,12.0
1979-07-26 12:41:02.430 ,7,1,0.,12.0,0.,12.0,0.,12.0,0.,12.0
1979-07-26 12:41:14.430 ,7,0,0.,12.0,0.,12.0,0.,12.0,0.,12.0
1979-07-26 12:41:26.430 ,7,0,0.,12.0,0.,12.0,0.,12.0,0.,12.0
1979-07-26 12:41:38.430 ,7,1,0.,12.0,0.,12.0,0.,12.0,0.,12.0
1979-07-26 12:41:50.430 ,7,1,0.,12.0,0.,12.0,0.,12.0,0.,12.0
1979-07-26 12:42:02.430 ,7,0,0.,12.0,0.,12.0,0.,12.0,0.,12.0
1979-07-26 12:42:14.430 ,7,0,0.,12.0,0.,12.0,0.,12.0,0.,12.0
1979-07-26 12:42:26.430 ,6,1,0.,12.0,0.,12.0,0.,12.0,0.,12.0
1979-07-26 12:42:38.430 ,6,1,0.,12.0,0.,12.0,0.,12.0,0.,12.0
1979-07-26 12:42:50.430 ,6,0,0.,12.0,0.,12.0,0.,12.0,0.,12.0
1979-07-26 12:43:02.430 ,6,0,0.,12.0,0.,12.0,0.,12.0,0.,12.0
1979-07-26 12:43:14.430 ,5,1,0.,12.0,0.,12.0,0.,12.0,0.,12.0
1979-07-26 12:43:26.430 ,5,1,0.,12.0,0.,12.0,0.,12.0,0.,12.0
1979-07-26 12:43:38.430 ,5,0,0.,12.0,0.,12.0,0.,12.0,0.,12.0
1979-07-26 12:43:50.430 ,5,0,0.,12.0,0.,12.0,0.,12.0,0.,12.0
1979-07-26 12:44:02.430 ,4,1,0.,12.0,0.,12.0,0.,12.0,0.,12.0
1979-07-26 12:44:14.430 ,4,1,0.,12.0,0.,12.0,0.,12.0,0.,12.0
1979-07-26 12:44:26.430 ,4,0,0.,12.0,0.,12.0,0.,12.0,0.,12.0
1979-07-26 12:44:38.430 ,4,0,0.,12.0,0.,12.0,0.,12.0,0.,12.0
1979-07-26 12:44:50.430 ,3,1,0.,12.0,0.,12.0,0.,12.0,0.,12.0
1979-07-26 12:45:02.430 ,3,1,0.,12.0,0.,12.0,0.,12.0,0.,12.0
1979-07-26 12:45:14.430 ,3,0,0.,12.0,0.,12.0,0.,12.0,0.,12.0
1979-07-26 12:45:26.430 ,3,0,0.,12.0,0.,12.0,0.,12.0,0.,12.0
1979-07-26 12:45:38.430 ,2,1,0.,12.0,0.,12.0,0.,12.0,0.,12.0
1979-07-26 12:45:50.430 ,2,1,0.,12.0,0.,12.0,0.,12.0,1.,12.0
1979-07-26 12:46:02.430 ,2,0,0.,12.0,0.,12.0,0.,12.0,0.,12.0
1979-07-26 12:46:14.430 ,2,0,0.,12.0,0.,12.0,0.,12.0,0.,12.0
1979-07-26 12:46:26.430 ,1,1,0.,12.0,0.,12.0,0.,12.0,0.,12.0
1979-07-26 12:46:38.430 ,1,1,0.,12.0,0.,12.0,0.,12.0,0.,12.0
1979-07-26 12:46:50.430 ,1,0,0.,12.0,0.,12.0,0.,12.0,0.,12.0
1979-07-26 12:47:02.430 ,1,0,0.,12.0,0.,12.0,0.,12.0,0.,12.0
1979-07-26 12:47:14.430 ,0,1,0.,12.0,0.,12.0,0.,12.0,0.,12.0
1979-07-26 12:47:26.430 ,0,1,0.,12.0,0.,12.0,0.,12.0,1.,12.0
1979-07-26 12:47:38.430 ,0,0,1.,12.0,0.,12.0,0.,12.0,0.,12.0
1979-07-26 12:47:50.430 ,0,0,0.,12.0,0.,12.0,0.,12.0,0.,12.0
1979-07-26 12:48:02.430 ,0,1,0.,12.0,0.,12.0,0.,12.0,0.,12.0
1979-07-26 12:48:14.430 ,0,1,0.,12.0,0.,12.0,0.,12.0,0.,12.0
1979-07-26 12:48:26.430 ,0,0,0.,12.0,0.,12.0,0.,12.0,0.,12.0
1979-07-26 12:48:38.430 ,0,0,0.,12.0,0.,12.0,0.,12.0,0.,12.0
1979-07-26 12:48:50.430 ,1,1,0.,12.0,0.,12.0,0.,12.0,0.,12.0
1979-07-26 12:49:02.430 ,1,1,0.,12.0,0.,12.0,0.,12.0,0.,12.0
1979-07-26 12:49:14.430 ,1,0,0.,12.0,0.,12.0,0.,12.0,0.,12.0
1979-07-26 12:49:26.430 ,1,0,0.,12.0,0.,12.0,0.,12.0,0.,12.0
1979-07-26 12:49:38.430 ,2,1,0.,12.0,0.,12.0,0.,12.0,0.,12.0
1979-07-26 12:49:50.430 ,2,1,0.,12.0,0.,12.0,0.,12.0,0.,12.0
1979-07-26 12:50:02.430 ,2,0,0.,12.0,0.,12.0,0.,12.0,0.,12.0
1979-07-26 12:50:14.430 ,2,0,0.,12.0,0.,12.0,0.,12.0,0.,12.0
1979-07-26 12:50:26.430 ,3,1,0.,12.0,0.,12.0,0.,12.0,0.,12.0
1979-07-26 12:50:38.430 ,3,1,0.,12.0,0.,12.0,0.,12.0,0.,12.0
1979-07-26 12:50:50.430 ,3,0,0.,12.0,0.,12.0,0.,12.0,0.,12.0
1979-07-26 12:51:02.430 ,3,0,0.,12.0,0.,12.0,0.,12.0,0.,12.0
1979-07-26 12:51:14.430 ,4,1,0.,12.0,0.,12.0,0.,12.0,0.,12.0
1979-07-26 12:51:26.430 ,4,1,0.,12.0,0.,12.0,0.,12.0,0.,12.0
1979-07-26 12:51:38.430 ,4,0,0.,12.0,0.,12.0,0.,12.0,0.,12.0
1979-07-26 12:51:50.430 ,4,0,0.,12.0,0.,12.0,0.,12.0,0.,12.0
1979-07-26 12:52:02.430 ,5,1,0.,12.0,0.,12.0,0.,12.0,0.,12.0
1979-07-26 12:52:14.430 ,5,1,0.,12.0,0.,12.0,0.,12.0,0.,12.0
1979-07-26 12:52:26.430 ,5,0,0.,12.0,0.,12.0,0.,12.0,0.,12.0
1979-07-26 12:52:38.430 ,5,0,0.,12.0,0.,12.0,0.,12.0,0.,12.0
1979-07-26 12:52:50.430 ,6,1,0.,12.0,0.,12.0,0.,12.0,0.,12.0
1979-07-26 12:53:02.430 ,6,1,0.,12.0,0.,12.0,0.,12.0,0.,12.0
1979-07-26 12:53:14.430 ,6,0,0.,12.0,0.,12.0,0.,12.0,0.,12.0
1979-07-26 12:53:26.430 ,6,0,0.,12.0,0.,12.0,0.,12.0,0.,12.0
1979-07-26 12:53:38.430 ,7,1,0.,12.0,0.,12.0,0.,12.0,0.,12.0
1979-07-26 12:53:50.430 ,7,1,0.,12.0,0.,12.0,0.,12.0,0.,12.0
1979-07-26 12:54:02.430 ,7,0,0.,12.0,0.,12.0,0.,12.0,0.,12.0
1979-07-26 12:54:14.430 ,7,0,0.,12.0,0.,12.0,0.,12.0,0.,12.0
1979-07-26 12:54:26.430 ,7,1,0.,12.0,0.,12.0,0.,12.0,0.,12.0
1979-07-26 12:54:38.430 ,7,1,0.,12.0,0.,12.0,0.,12.0,0.,12.0
1979-07-26 12:54:50.430 ,7,0,0.,12.0,0.,12.0,0.,12.0,0.,12.0
1979-07-26 12:55:02.430 ,7,0,0.,12.0,0.,12.0,0.,12.0,0.,12.0
1979-07-26 12:55:14.430 ,6,1,0.,12.0,0.,12.0,0.,12.0,0.,12.0
1979-07-26 12:55:26.430 ,6,1,0.,12.0,0.,12.0,0.,12.0,0.,12.0
1979-07-26 12:55:38.430 ,6,0,0.,12.0,0.,12.0,0.,12.0,0.,12.0
1979-07-26 12:55:50.430 ,6,0,0.,12.0,0.,12.0,0.,12.0,0.,12.0
1979-07-26 12:56:02.430 ,5,1,0.,12.0,0.,12.0,0.,12.0,0.,12.0
1979-07-26 12:56:14.430 ,5,1,0.,12.0,0.,12.0,0.,12.0,0.,12.0
1979-07-26 12:56:26.430 ,5,0,0.,12.0,0.,12.0,0.,12.0,0.,12.0
1979-07-26 12:56:38.430 ,5,0,0.,12.0,0.,12.0,0.,12.0,0.,12.0
1979-07-26 12:56:50.430 ,4,1,0.,12.0,0.,12.0,0.,12.0,0.,12.0
1979-07-26 12:57:02.430 ,4,1,0.,12.0,0.,12.0,0.,12.0,0.,12.0
1979-07-26 12:57:14.430 ,4,0,0.,12.0,0.,12.0,0.,12.0,0.,12.0
1979-07-26 12:57:26.430 ,4,0,0.,12.0,0.,12.0,0.,12.0,0.,12.0
1979-07-26 12:57:38.430 ,3,1,0.,12.0,0.,12.0,0.,12.0,0.,12.0
1979-07-26 12:57:50.430 ,3,1,0.,12.0,0.,12.0,0.,12.0,0.,12.0
1979-07-26 12:58:02.430 ,3,0,0.,12.0,0.,12.0,0.,12.0,0.,12.0
1979-07-26 12:58:14.430 ,3,0,0.,12.0,0.,12.0,0.,12.0,0.,12.0
1979-07-26 12:58:26.430 ,2,1,0.,12.0,0.,12.0,0.,12.0,0.,12.0
1979-07-26 12:58:38.430 ,2,1,0.,12.0,0.,12.0,0.,12.0,0.,12.0
1979-07-26 12:58:50.430 ,2,0,0.,12.0,0.,12.0,0.,12.0,0.,12.0
1979-07-26 12:59:02.430 ,2,0,0.,12.0,0.,12.0,0.,12.0,0.,12.0
1979-07-26 12:59:14.430 ,1,1,0.,12.0,0.,12.0,0.,12.0,0.,12.0
1979-07-26 12:59:26.430 ,1,1,0.,12.0,0.,12.0,0.,12.0,0.,12.0
1979-07-26 12:59:38.430 ,1,0,0.,12.0,0.,12.0,0.,12.0,0.,12.0
1979-07-26 12:59:50.430 ,1,0,0.,12.0,0.,12.0,0.,12.0,0.,12.0
1979-07-26 13:00:02.430 ,0,1,0.,12.0,0.,12.0,0.,12.0,0.,12.0
1979-07-26 13:00:14.430 ,0,1,0.,12.0,0.,12.0,0.,12.0,0.,12.0
1979-07-26 13:00:26.430 ,0,0,0.,12.0,0.,12.0,0.,12.0,0.,12.0
1979-07-26 13:00:38.430 ,0,0,0.,12.0,0.,12.0,0.,12.0,0.,12.0
1979-07-26 13:00:50.430 ,0,1,0.,12.0,0.,12.0,0.,12.0,0.,12.0
1979-07-26 13:01:02.430 ,0,1,0.,12.0,0.,12.0,0.,12.0,0.,12.0
1979-07-26 13:01:14.430 ,0,0,0.,12.0,0.,12.0,0.,12.0,0.,12.0
1979-07-26 13:01:26.430 ,0,0,0.,12.0,0.,12.0,0.,12.0,0.,12.0
1979-07-26 13:01:38.430 ,1,1,0.,12.0,0.,12.0,0.,12.0,0.,12.0
1979-07-26 13:01:50.430 ,1,1,0.,12.0,0.,12.0,0.,12.0,0.,12.0
1979-07-26 13:02:02.430 ,1,0,0.,12.0,0.,12.0,0.,12.0,0.,12.0
1979-07-26 13:02:14.430 ,1,0,0.,12.0,0.,12.0,0.,12.0,0.,12.0
1979-07-26 13:02:26.430 ,2,1,0.,12.0,0.,12.0,0.,12.0,0.,12.0
1979-07-26 13:02:38.430 ,2,1,0.,12.0,0.,12.0,0.,12.0,0.,12.0
1979-07-26 13:02:50.430 ,2,0,0.,12.0,0.,12.0,0.,12.0,0.,12.0
1979-07-26 13:03:02.430 ,2,0,0.,12.0,0.,12.0,0.,12.0,0.,12.0
1979-07-26 13:03:14.430 ,3,1,0.,12.0,0.,12.0,0.,12.0,0.,12.0
1979-07-26 13:03:26.430 ,3,1,0.,12.0,0.,12.0,0.,12.0,0.,12.0
1979-07-26 13:03:38.430 ,3,0,0.,12.0,0.,12.0,0.,12.0,0.,12.0
1979-07-26 13:03:50.430 ,3,0,0.,12.0,0.,12.0,0.,12.0,0.,12.0
1979-07-26 13:04:02.430 ,4,1,0.,12.0,0.,12.0,0.,12.0,0.,12.0
1979-07-26 13:04:14.430 ,4,1,0.,12.0,0.,12.0,0.,12.0,0.,12.0
1979-07-26 13:04:26.430 ,4,0,0.,12.0,0.,12.0,0.,12.0,0.,12.0
1979-07-26 13:04:38.430 ,4,0,0.,12.0,0.,12.0,0.,12.0,0.,12.0
1979-07-26 13:04:50.430 ,5,1,0.,12.0,0.,12.0,0.,12.0,0.,12.0
1979-07-26 13:05:02.430 ,5,1,0.,12.0,0.,12.0,0.,12.0,0.,12.0
1979-07-26 13:05:38.430 ,0,0,0.,12.0,0.,12.0,0.,12.0,0.,12.0
1979-07-26 13:05:50.430 ,0,0,0.,12.0,0.,12.0,0.,12.0,0.,12.0
1979-07-26 13:06:02.430 ,0,0,0.,12.0,0.,12.0,0.,12.0,0.,12.0
1979-07-26 13:06:14.430 ,0,0,0.,12.0,0.,12.0,0.,12.0,0.,12.0
1979-07-26 13:06:26.430 ,7,0,0.,12.0,0.,12.0,0.,12.0,0.,12.0
1979-07-26 13:06:38.430 ,7,0,0.,12.0,0.,12.0,0.,12.0,0.,12.0
1979-07-26 13:06:50.430 ,7,0,0.,12.0,0.,12.0,0.,12.0,0.,12.0
1979-07-26 13:07:02.430 ,7,0,0.,12.0,0.,12.0,0.,12.0,0.,12.0
1979-07-26 13:07:14.430 ,4,1,0.,12.0,0.,12.0,0.,12.0,0.,12.0
1979-07-26 13:07:26.430 ,4,1,0.,12.0,0.,12.0,0.,12.0,0.,12.0
1979-07-26 13:07:38.430 ,0,1,0.,12.0,0.,12.0,0.,12.0,0.,12.0
1979-07-26 13:07:50.430 ,0,1,0.,12.0,0.,12.0,0.,12.0,0.,12.0
1979-07-26 13:08:02.430 ,3,1,0.,12.0,0.,12.0,0.,12.0,0.,12.0
1979-07-26 13:08:14.430 ,3,1,0.,12.0,0.,12.0,0.,12.0,0.,12.0
1979-07-26 13:08:26.430 ,7,1,0.,12.0,0.,12.0,0.,12.0,0.,12.0
1979-07-26 13:08:38.430 ,7,1,0.,12.0,0.,12.0,0.,12.0,0.,12.0
1979-07-26 13:08:50.430 ,4,1,0.,12.0,0.,12.0,0.,12.0,0.,12.0
1979-07-26 13:09:02.430 ,4,1,0.,12.0,0.,12.0,0.,12.0,0.,12.0
1979-07-26 13:09:14.430 ,0,1,0.,12.0,0.,12.0,0.,12.0,0.,12.0
1979-07-26 13:09:26.430 ,0,1,0.,12.0,0.,12.0,0.,12.0,0.,12.0
1979-07-26 13:09:38.430 ,3,1,0.,12.0,0.,12.0,0.,12.0,0.,12.0
1979-07-26 13:09:50.430 ,3,1,0.,12.0,0.,12.0,0.,12.0,0.,12.0
1979-07-26 13:10:02.430 ,7,1,0.,12.0,0.,12.0,0.,12.0,0.,12.0
1979-07-26 13:10:14.430 ,7,1,0.,12.0,0.,12.0,0.,12.0,0.,12.0
1979-07-26 13:10:26.430 ,4,1,0.,12.0,0.,12.0,0.,12.0,0.,12.0
1979-07-26 13:10:38.430 ,4,1,0.,12.0,0.,12.0,0.,12.0,0.,12.0
1979-07-26 13:10:50.430 ,0,1,0.,12.0,0.,12.0,0.,12.0,0.,12.0
1979-07-26 13:11:02.430 ,0,1,0.,12.0,0.,12.0,0.,12.0,0.,12.0
1979-07-26 13:11:14.430 ,3,1,0.,12.0,0.,12.0,0.,12.0,0.,12.0
1979-07-26 13:11:26.430 ,3,1,0.,12.0,0.,12.0,0.,12.0,0.,12.0
1979-07-26 13:11:38.430 ,7,1,0.,12.0,0.,12.0,0.,12.0,0.,12.0
1979-07-26 13:11:50.430 ,7,1,0.,12.0,0.,12.0,0.,12.0,0.,12.0
1979-07-26 13:12:02.430 ,4,1,0.,12.0,0.,12.0,0.,12.0,0.,12.0
1979-07-26 13:12:14.430 ,4,1,0.,12.0,0.,12.0,0.,12.0,1.,12.0
1979-07-26 13:12:26.430 ,0,1,0.,12.0,0.,12.0,0.,12.0,0.,12.0
1979-07-26 13:12:38.430 ,0,1,0.,12.0,0.,12.0,0.,12.0,0.,12.0
1979-07-26 13:12:50.430 ,3,1,0.,12.0,0.,12.0,0.,12.0,0.,12.0
1979-07-26 13:13:02.430 ,3,1,0.,12.0,0.,12.0,0.,12.0,0.,12.0
1979-07-26 13:13:14.430 ,7,1,0.,12.0,0.,12.0,0.,12.0,0.,12.0
1979-07-26 13:13:26.430 ,7,1,0.,12.0,0.,12.0,0.,12.0,0.,12.0
1979-07-26 13:13:38.430 ,4,1,1.,12.0,0.,12.0,0.,12.0,0.,12.0
1979-07-26 13:13:50.430 ,4,1,0.,12.0,0.,12.0,0.,12.0,0.,12.0
1979-07-26 13:14:02.430 ,0,1,0.,12.0,0.,12.0,0.,12.0,0.,12.0
1979-07-26 13:14:14.430 ,0,1,0.,12.0,0.,12.0,0.,12.0,0.,12.0
1979-07-26 13:14:26.430 ,3,1,0.,12.0,0.,12.0,0.,12.0,0.,12.0
1979-07-26 13:14:38.430 ,3,1,0.,12.0,0.,12.0,0.,12.0,0.,12.0
1979-07-26 13:14:50.430 ,7,1,0.,12.0,0.,12.0,0.,12.0,0.,12.0
1979-07-26 13:15:02.430 ,7,1,0.,12.0,0.,12.0,0.,12.0,0.,12.0
1979-07-26 13:15:14.430 ,4,1,0.,12.0,0.,12.0,0.,12.0,0.,12.0
1979-07-26 13:15:26.430 ,4,1,0.,12.0,0.,12.0,0.,12.0,0.,12.0
1979-07-26 13:15:38.430 ,0,1,0.,12.0,0.,12.0,0.,12.0,0.,12.0
1979-07-26 13:15:50.430 ,0,1,0.,12.0,0.,12.0,0.,12.0,0.,12.0
1979-07-26 13:16:02.430 ,3,1,0.,12.0,0.,12.0,0.,12.0,0.,12.0
1979-07-26 13:16:14.430 ,3,1,0.,12.0,0.,12.0,0.,12.0,0.,12.0
1979-07-26 13:16:26.430 ,7,1,0.,12.0,0.,12.0,0.,12.0,0.,12.0
1979-07-26 13:16:38.430 ,7,1,0.,12.0,0.,12.0,0.,12.0,0.,12.0
1979-07-26 13:16:50.430 ,4,1,0.,12.0,0.,12.0,0.,12.0,0.,12.0
1979-07-26 13:17:02.430 ,4,1,0.,12.0,0.,12.0,0.,12.0,0.,12.0
1979-07-26 13:17:14.430 ,0,1,0.,12.0,0.,12.0,0.,12.0,0.,12.0
1979-07-26 13:17:26.430 ,0,1,0.,12.0,0.,12.0,0.,12.0,0.,12.0
1979-07-26 13:17:38.430 ,0,0,0.,12.0,0.,12.0,0.,12.0,0.,12.0
1979-07-26 13:17:50.430 ,0,0,0.,12.0,0.,12.0,0.,12.0,0.,12.0